[TLELIST] Archives

 

[TLELIST] Current TLEs

March 3rd 2024 PDT

HST 1 20580U 90037B 24063.13131939 .00005808 00000-0 28332-3 0 9991 2 20580 28.4696 334.8289 0002688 323.4287 36.6122 15.16155999661174 ISS (ZARYA) 1 25544U 98067A 24063.44405839 .00014608 00000-0 26733-3 0 9995 2 25544 51.6407 119.4406 0005836 319.4962 163.4985 15.49571966442151 CXO 1 25867U 99040B 24064.73870897 .00001136 00000-0 00000-0 0 9996 2 25867 39.0237 164.5043 8969530 288.5598 0.5855 0.37810200 14179 ...Continue Reading

[TLELIST] Current TLEs

March 3rd 2024 PDT

HST 1 20580U 90037B 24063.13131939 .00005808 00000-0 28332-3 0 9991 2 20580 28.4696 334.8289 0002688 323.4287 36.6122 15.16155999661174 ISS (ZARYA) 1 25544U 98067A 24063.44405839 .00014608 00000-0 26733-3 0 9995 2 25544 51.6407 119.4406 0005836 319.4962 163.4985 15.49571966442151 CXO 1 25867U 99040B 24064.73870897 .00001136 00000-0 00000-0 0 9996 2 25867 39.0237 164.5043 8969530 288.5598 0.5855 0.37810200 14179 ...Continue Reading

[TLELIST] Current TLEs

March 2nd 2024 PDT

HST 1 20580U 90037B 24062.07811419 .00005557 00000-0 27077-3 0 9997 2 20580 28.4697 341.8682 0002660 311.0987 48.9375 15.16144293661014 ISS (ZARYA) 1 25544U 98067A 24062.41232376 .00012465 00000-0 22965-3 0 9997 2 25544 51.6401 124.5500 0005854 316.6006 167.1563 15.49537354441992 CXO 1 25867U 99040B 24064.73832357 .00001136 00000-0 00000+0 0 9994 2 25867 39.0234 164.5127 8969511 288.5515 0.5337 0.37811777 25321 ...Continue Reading

[TLELIST] Current TLEs

March 1st 2024 PDT

HST 1 20580U 90037B 24060.89324853 .00005360 00000-0 26090-3 0 9992 2 20580 28.4697 349.7865 0002640 297.1562 62.8760 15.16131804660572 ISS (ZARYA) 1 25544U 98067A 24061.30843755 .00015035 00000-0 27549-3 0 9992 2 25544 51.6412 130.0162 0005881 311.0214 130.8791 15.49509182441820 CXO 1 25867U 99040B 24062.09558345 .00001067 00000-0 00000-0 0 9997 2 25867 38.9977 164.7184 8971433 288.4060 0.6624 0.37813309 14161 ...Continue Reading

[TLELIST] Current TLEs

March 1st 2024 PDT

HST 1 20580U 90037B 24060.89324853 .00005360 00000-0 26090-3 0 9992 2 20580 28.4697 349.7865 0002640 297.1562 62.8760 15.16131804660572 ISS (ZARYA) 1 25544U 98067A 24061.30843755 .00015035 00000-0 27549-3 0 9992 2 25544 51.6412 130.0162 0005881 311.0214 130.8791 15.49509182441820 CXO 1 25867U 99040B 24062.09558345 .00001067 00000-0 00000-0 0 9997 2 25867 38.9977 164.7184 8971433 288.4060 0.6624 0.37813309 14161 ...Continue Reading

[TLELIST] Current TLEs

February 29th 2024 PDT

HST 1 20580U 90037B 24059.90585326 .00005594 00000-0 27280-3 0 9997 2 20580 28.4698 356.3848 0002638 285.2265 74.8035 15.16121993660423 ISS (ZARYA) 1 25544U 98067A 24060.40954844 .00016153 00000-0 29560-3 0 9991 2 25544 51.6412 134.4665 0005811 307.0846 157.3392 15.49483648441688 CXO 1 25867U 99040B 24062.09558345 .00001067 00000-0 00000-0 0 9997 2 25867 38.9977 164.7184 8971433 288.4060 0.6624 0.37813309 14161 ...Continue Reading

[TLELIST] Current TLEs

February 28th 2024 PDT

HST 1 20580U 90037B 24058.91845267 .00005717 00000-0 27910-3 0 9997 2 20580 28.4697 2.9831 0002569 274.3529 85.6769 15.16110385660273 ISS (ZARYA) 1 25544U 98067A 24059.38110244 .00017250 00000-0 31546-3 0 9990 2 25544 51.6398 139.5586 0005668 300.9145 182.9674 15.49450200441521 CXO 1 25867U 99040B 24059.44928820 .00001012 00000-0 00000+0 0 9990 2 25867 38.9769 164.9260 8975102 288.2572 0.3416 0.37814357 25308 ...Continue Reading

[TLELIST] Current TLEs

February 27th 2024 PDT

HST 1 20580U 90037B 24057.93104409 .00006592 00000-0 32336-3 0 9994 2 20580 28.4698 9.5813 0002619 261.9479 98.0816 15.16099923660128 ISS (ZARYA) 1 25544U 98067A 24058.40849753 .00041490 00000-0 74624-3 0 9993 2 25544 51.6398 144.3716 0005651 296.8323 158.3123 15.49405799441375 CXO 1 25867U 99040B 24059.44928820 .00001012 00000-0 00000+0 0 9990 2 25867 38.9769 164.9260 8975102 288.2572 0.3416 0.37814357 25308 ...Continue Reading

[TLELIST] Current TLEs

February 27th 2024 PDT

HST 1 20580U 90037B 24057.93104409 .00006592 00000-0 32336-3 0 9994 2 20580 28.4698 9.5813 0002619 261.9479 98.0816 15.16099923660128 ISS (ZARYA) 1 25544U 98067A 24058.40849753 .00041490 00000-0 74624-3 0 9993 2 25544 51.6398 144.3716 0005651 296.8323 158.3123 15.49405799441375 CXO 1 25867U 99040B 24059.44928820 .00001012 00000-0 00000+0 0 9990 2 25867 38.9769 164.9260 8975102 288.2572 0.3416 0.37814357 25308 ...Continue Reading

[TLELIST] Current TLEs

February 26th 2024 PDT

HST 1 20580U 90037B 24056.94362791 .00007131 00000-0 35069-3 0 9990 2 20580 28.4699 16.1799 0002611 250.8087 109.2223 15.16088924659977 ISS (ZARYA) 1 25544U 98067A 24057.44189117 .00023221 00000-0 42269-3 0 9999 2 25544 51.6422 149.1579 0005895 295.3005 164.7245 15.49371753441226 CXO 1 25867U 99040B 24056.80623026 .00000953 00000-0 00000-0 0 9991 2 25867 38.9421 165.1930 8979348 288.0527 0.5095 0.37813577 14131 ...Continue Reading
  • This mailing list is a public mailing list - anyone may join or leave, at any time.
  • This mailing list is announce-only.

International Space Station (ISS) / Hubble Space Telescope (HST) / Chandra X-Ray Observatory Orbital Data via EMAIL

Privacy Policy:

Private list